Tullahoma, TN

8:44 AM CST on February 06, 2016 (GMT -0600)
Tullahoma Regional-Northern

Weather History for KTHA - April, 2013

Change the Weather History Date:

Wednesday, April 3, 2013

  Actual Average (KBNA) Record (KBNA)
Temperature  
Mean Temperature 46 °F 55 °F  
Max Temperature 53 °F 67 °F 86 °F (2012)
Min Temperature 39 °F 44 °F 24 °F (1992)
Degree Days  
Heating Degree Days 19    
Month to date heating degree days  
Since 1 July heating degree days  
Cooling Degree Days 0    
Month to date cooling degree days  
Year to date cooling degree days  
Moisture  
Dew Point 21 °F    
Average Humidity 37    
Maximum Humidity 57    
Minimum Humidity 28    
Precipitation  
Precipitation 0.00 in 0.12 in 1.54 in (1977)
Month to date precipitation 0.36  
Year to date precipitation 12.16  
Snow  
Snow 0.00 in 0.00 in 0.10 in (1936)
Month to date snowfall 0.0  
Since 1 July snowfall 6.3  
Snow Depth -    
Sea Level Pressure  
Sea Level Pressure 30.19 in    
Wind  
Wind Speed 7 mph (NE)    
Max Wind Speed 13 mph    
Max Gust Speed -    
Visibility 10 miles    
Events      
T = Trace of Precipitation, MM = Missing Value Source: NWS Daily Summary

Daily Weather History Graph

Daily Weather History Graph

Search for Another Location

Airport or City:

Trip Planner

Search our weather history database for the weather conditions in past years. The results will help you decide how hot, cold, wet, or windy it might be!

Date:

Astronomy

Apr. 03, 2013 Rise Set
Actual Time 6:28 AM CDT 7:08 PM CDT
Civil Twilight 6:02 AM CDT 7:34 PM CDT
Nautical Twilight 5:32 AM CDT 8:04 PM CDT
Astronomical Twilight 5:01 AM CDT 8:35 PM CDT
Moon 1:55 AM CDT (4/3) 12:33 PM CDT (4/3)
Length of Visible Light 13h 31m
Length of Day
12h 39m
Last Quarter, 44% of the Moon is Illuminated
Apr 3
Last Quarter
Apr 10
New
Apr 18
First Quarter
Apr 25
Full
May 2
Last Quarter

Hourly Weather History & Observations

Time (CDT) Temp. Windchill Dew Point Humidity Pressure Visibility Wind Dir Wind Speed Gust Speed Precip Events Conditions
12:15 AM 41.0 °F 37.1 °F 26.6 °F 57% 30.23 in 10.0 mi North 5.8 mph - N/A   Mostly Cloudy
12:35 AM 42.8 °F 41.1 °F 24.8 °F 49% 30.22 in 10.0 mi NE 3.5 mph - N/A   Overcast
12:55 AM 42.8 °F 40.1 °F 24.8 °F 49% 30.22 in 10.0 mi North 4.6 mph - N/A   Scattered Clouds
1:15 AM 41.0 °F 38.0 °F 24.8 °F 53% 30.22 in 10.0 mi NNE 4.6 mph - N/A   Clear
1:35 AM 41.0 °F 38.0 °F 23.0 °F 49% 30.21 in 10.0 mi NNE 4.6 mph - N/A   Partly Cloudy
1:55 AM 41.0 °F 36.4 °F 24.8 °F 53% 30.21 in 10.0 mi NNE 6.9 mph - N/A   Mostly Cloudy
2:15 AM 41.0 °F 35.8 °F 24.8 °F 53% 30.20 in 10.0 mi NNE 8.1 mph - N/A   Overcast
2:35 AM 41.0 °F 35.8 °F 24.8 °F 53% 30.19 in 10.0 mi NNE 8.1 mph - N/A   Overcast
2:55 AM 41.0 °F 35.2 °F 23.0 °F 49% 30.19 in 10.0 mi NE 9.2 mph - N/A   Overcast
3:15 AM 41.0 °F 35.8 °F 21.2 °F 45% 30.17 in 10.0 mi NE 8.1 mph - N/A   Mostly Cloudy
3:35 AM 39.2 °F 32.5 °F 19.4 °F 45% 30.16 in 10.0 mi NE 10.4 mph - N/A   Partly Cloudy
3:55 AM 39.2 °F 32.5 °F 19.4 °F 45% 30.16 in 10.0 mi NE 10.4 mph - N/A   Scattered Clouds
4:15 AM 39.2 °F 33.6 °F 17.6 °F 42% 30.18 in 10.0 mi NE 8.1 mph - N/A   Overcast
4:35 AM 39.2 °F 33.0 °F 17.6 °F 42% 30.17 in 10.0 mi NE 9.2 mph - N/A   Overcast
4:55 AM 39.2 °F 33.0 °F 17.6 °F 42% 30.18 in 10.0 mi NNE 9.2 mph - N/A   Mostly Cloudy
5:15 AM 39.2 °F 33.6 °F 17.6 °F 42% 30.19 in 10.0 mi NE 8.1 mph - N/A   Mostly Cloudy
5:35 AM 39.2 °F 34.2 °F 17.6 °F 42% 30.19 in 10.0 mi NE 6.9 mph - N/A   Overcast
5:55 AM 39.2 °F 33.6 °F 19.4 °F 45% 30.21 in 10.0 mi NE 8.1 mph - N/A   Overcast
6:15 AM 39.2 °F 34.2 °F 19.4 °F 45% 30.21 in 10.0 mi NE 6.9 mph - N/A   Overcast
6:35 AM 39.2 °F 32.5 °F 19.4 °F 45% 30.22 in 10.0 mi NE 10.4 mph - N/A   Overcast
6:55 AM 39.2 °F 34.2 °F 19.4 °F 45% 30.22 in 10.0 mi NE 6.9 mph - N/A   Mostly Cloudy
7:15 AM 39.2 °F 35.0 °F 19.4 °F 45% 30.22 in 10.0 mi NE 5.8 mph - N/A   Mostly Cloudy
7:35 AM 39.2 °F 33.0 °F 19.4 °F 45% 30.22 in 10.0 mi NE 9.2 mph - N/A   Partly Cloudy
7:55 AM 39.2 °F 33.6 °F 19.4 °F 45% 30.23 in 10.0 mi NE 8.1 mph - N/A   Partly Cloudy
8:15 AM 42.8 °F 38.0 °F 19.4 °F 39% 30.22 in 10.0 mi NE 8.1 mph - N/A   Clear
8:35 AM 42.8 °F 36.6 °F 19.4 °F 39% 30.22 in 10.0 mi NE 11.5 mph - N/A   Clear
8:55 AM 44.6 °F 39.7 °F 19.4 °F 37% 30.22 in 10.0 mi NE 9.2 mph - N/A   Clear
9:15 AM 44.6 °F 39.7 °F 19.4 °F 37% 30.22 in 10.0 mi ENE 9.2 mph - N/A   Clear
9:35 AM 46.4 °F 40.7 °F 19.4 °F 34% 30.22 in 10.0 mi ENE 12.7 mph - N/A   Clear
9:55 AM 46.4 °F 41.5 °F 19.4 °F 34% 30.22 in 10.0 mi ENE 10.4 mph - N/A   Clear
10:15 AM 48.2 °F - 17.6 °F 30% 30.23 in 10.0 mi ENE 10.4 mph - N/A   Clear
10:35 AM 48.2 °F - 19.4 °F 32% 30.23 in 10.0 mi ENE 9.2 mph - N/A   Clear
10:55 AM 50.0 °F - 17.6 °F 28% 30.23 in 10.0 mi East 6.9 mph - N/A   Clear
11:15 AM 51.8 °F - 19.4 °F 28% 30.23 in 10.0 mi ENE 9.2 mph - N/A   Clear
11:35 AM 51.8 °F - 19.4 °F 28% 30.23 in 10.0 mi NE 8.1 mph - N/A   Clear
11:55 AM 51.8 °F - 19.4 °F 28% 30.21 in 10.0 mi NNE 10.4 mph - N/A   Clear
12:15 PM 51.8 °F - 19.4 °F 28% 30.21 in 10.0 mi NE 9.2 mph - N/A   Clear
12:35 PM 51.8 °F - 21.2 °F 30% 30.21 in 10.0 mi NE 9.2 mph - N/A   Clear
12:55 PM 53.6 °F - 21.2 °F 28% 30.20 in 10.0 mi NNE 12.7 mph - N/A   Clear
1:15 PM 53.6 °F - 21.2 °F 28% 30.21 in 10.0 mi NE 6.9 mph - N/A   Clear
1:35 PM 53.6 °F - 21.2 °F 28% 30.22 in 10.0 mi ENE 6.9 mph - N/A   Clear
1:55 PM 53.6 °F - 21.2 °F 28% 30.21 in 10.0 mi North 8.1 mph - N/A   Clear
2:15 PM 53.6 °F - 21.2 °F 28% 30.22 in 10.0 mi NE 6.9 mph - N/A   Clear
2:35 PM 53.6 °F - 23.0 °F 30% 30.21 in 10.0 mi NNE 8.1 mph - N/A   Clear
2:55 PM 53.6 °F - 23.0 °F 30% 30.21 in 10.0 mi NNE 8.1 mph - N/A   Clear
3:15 PM 53.6 °F - 21.2 °F 28% 30.20 in 10.0 mi NNE 9.2 mph - N/A   Clear
3:35 PM 53.6 °F - 21.2 °F 28% 30.20 in 10.0 mi NNE 10.4 mph - N/A   Clear
3:55 PM 53.6 °F - 21.2 °F 28% 30.19 in 10.0 mi NNE 8.1 mph - N/A   Clear
4:15 PM 53.6 °F - 21.2 °F 28% 30.18 in 10.0 mi NE 6.9 mph - N/A   Clear
4:35 PM 53.6 °F - 21.2 °F 28% 30.17 in 10.0 mi NNE 9.2 mph - N/A   Clear
4:55 PM 53.6 °F - 21.2 °F 28% 30.17 in 10.0 mi NE 6.9 mph - N/A   Clear
5:15 PM 53.6 °F - 21.2 °F 28% 30.16 in 10.0 mi NNE 9.2 mph - N/A   Clear
5:35 PM 53.6 °F - 21.2 °F 28% 30.15 in 10.0 mi NE 8.1 mph - N/A   Clear
5:55 PM 53.6 °F - 21.2 °F 28% 30.14 in 10.0 mi NE 11.5 mph - N/A   Clear
6:15 PM 51.8 °F - 21.2 °F 30% 30.15 in 10.0 mi NE 9.2 mph - N/A   Clear
6:35 PM 51.8 °F - 21.2 °F 30% 30.15 in 10.0 mi NE 5.8 mph - N/A   Clear
6:55 PM 51.8 °F - 21.2 °F 30% 30.15 in 10.0 mi NNE 8.1 mph - N/A   Clear
7:15 PM 51.8 °F - 21.2 °F 30% 30.16 in 10.0 mi NE 6.9 mph - N/A   Clear
7:35 PM 51.8 °F - 21.2 °F 30% 30.16 in 10.0 mi NE 5.8 mph - N/A   Clear
7:55 PM 51.8 °F - 21.2 °F 30% 30.17 in 10.0 mi NE 8.1 mph - N/A   Clear
8:15 PM 51.8 °F - 21.2 °F 30% 30.16 in 10.0 mi ENE 8.1 mph - N/A   Clear
8:35 PM 51.8 °F - 21.2 °F 30% 30.15 in 10.0 mi ENE 6.9 mph - N/A   Clear
8:55 PM 50.0 °F - 23.0 °F 35% 30.15 in 10.0 mi ENE 8.1 mph - N/A   Clear
9:15 PM 50.0 °F - 21.2 °F 32% 30.15 in 10.0 mi ENE 8.1 mph - N/A   Clear
9:35 PM 50.0 °F - 23.0 °F 35% 30.15 in 10.0 mi NE 4.6 mph - N/A   Clear
9:55 PM 48.2 °F - 23.0 °F 37% 30.16 in 10.0 mi NE 4.6 mph - N/A   Clear
10:15 PM 48.2 °F - 24.8 °F 40% 30.15 in 10.0 mi ENE 5.8 mph - N/A   Clear
10:35 PM 48.2 °F - 24.8 °F 40% 30.15 in 10.0 mi NE 4.6 mph - N/A   Clear
10:55 PM 48.2 °F - 23.0 °F 37% 30.15 in 10.0 mi ENE 3.5 mph - N/A   Mostly Cloudy
11:15 PM 48.2 °F - 24.8 °F 40% 30.14 in 10.0 mi NE 4.6 mph - N/A   Mostly Cloudy
11:35 PM 48.2 °F - 24.8 °F 40% 30.14 in 10.0 mi ENE 4.6 mph - N/A   Scattered Clouds
11:55 PM 48.2 °F - 24.8 °F 40% 30.15 in 10.0 mi NE 3.5 mph - N/A   Scattered Clouds